<?xml version="1.0" encoding="UTF-8" standalone="no" ?>
<gpx xmlns="http://www.topografix.com/GPX/1/1" xmlns:xsi="http://www.w3.org/2001/XMLSchema-instance" xsi:schemaLocation="http://www.topografix.com/GPX/1/1 http://www.topografix.com/GPX/1/1/gpx.xsd" version="1.1" creator="VisuGPX - https://www.visugpx.com">
  <metadata>
    <name>Les Sauvages 4</name>
  </metadata>
  <wpt lat="45.92766" lon="4.36185">
    <ele>606.9</ele>
  </wpt>
  <trk>
    <name><![CDATA[Les Sauvages 4_1]]></name>
    <extensions>
      <line xmlns="http://www.topografix.com/GPX/gpx_style/0/2">
        <color>0000FF</color>
        <width>4</width>
      </line>
    </extensions>
    <trkseg>
      <trkpt lat="45.9285" lon="4.38414">
        <ele>721.1</ele>
      </trkpt>
      <trkpt lat="45.92828" lon="4.3838">
        <ele>718</ele>
      </trkpt>
      <trkpt lat="45.92775" lon="4.38365">
        <ele>717</ele>
      </trkpt>
      <trkpt lat="45.92708" lon="4.38392">
        <ele>709</ele>
      </trkpt>
      <trkpt lat="45.92698" lon="4.38361">
        <ele>709</ele>
      </trkpt>
      <trkpt lat="45.92645" lon="4.38374">
        <ele>700</ele>
      </trkpt>
      <trkpt lat="45.92672" lon="4.38333">
        <ele>707</ele>
      </trkpt>
      <trkpt lat="45.92685" lon="4.38285">
        <ele>711</ele>
      </trkpt>
      <trkpt lat="45.9266" lon="4.38163">
        <ele>709.5</ele>
      </trkpt>
      <trkpt lat="45.92648" lon="4.38066">
        <ele>710.4</ele>
      </trkpt>
      <trkpt lat="45.92648" lon="4.37975">
        <ele>714</ele>
      </trkpt>
      <trkpt lat="45.92647" lon="4.3776">
        <ele>721</ele>
      </trkpt>
      <trkpt lat="45.92666" lon="4.37705">
        <ele>721</ele>
      </trkpt>
      <trkpt lat="45.92735" lon="4.37749">
        <ele>717</ele>
      </trkpt>
      <trkpt lat="45.92853" lon="4.3759">
        <ele>697.9</ele>
      </trkpt>
      <trkpt lat="45.92976" lon="4.37391">
        <ele>662</ele>
      </trkpt>
      <trkpt lat="45.9303" lon="4.37327">
        <ele>655</ele>
        <time>2020-02-16T15:52:58Z</time>
      </trkpt>
      <trkpt lat="45.93079" lon="4.37093">
        <ele>629</ele>
        <time>2020-02-16T15:56:45Z</time>
      </trkpt>
      <trkpt lat="45.93084" lon="4.36935">
        <ele>619</ele>
        <time>2020-02-16T15:59:12Z</time>
      </trkpt>
      <trkpt lat="45.93112" lon="4.3684">
        <ele>616</ele>
        <time>2020-02-16T16:00:47Z</time>
      </trkpt>
      <trkpt lat="45.93214" lon="4.36646">
        <ele>599</ele>
        <time>2020-02-16T16:04:33Z</time>
      </trkpt>
      <trkpt lat="45.93242" lon="4.36498">
        <ele>583</ele>
        <time>2020-02-16T16:06:55Z</time>
      </trkpt>
      <trkpt lat="45.93277" lon="4.36371">
        <ele>569</ele>
        <time>2020-02-16T16:09:02Z</time>
      </trkpt>
      <trkpt lat="45.93338" lon="4.36251">
        <ele>557</ele>
        <time>2020-02-16T16:11:20Z</time>
      </trkpt>
      <trkpt lat="45.93435" lon="4.36219">
        <ele>552</ele>
        <time>2020-02-16T16:13:33Z</time>
      </trkpt>
      <trkpt lat="45.93517" lon="4.36049">
        <ele>549</ele>
        <time>2020-02-16T16:16:45Z</time>
      </trkpt>
      <trkpt lat="45.93629" lon="4.35902">
        <ele>541</ele>
        <time>2020-02-16T16:20:07Z</time>
      </trkpt>
      <trkpt lat="45.93611" lon="4.35832">
        <ele>552</ele>
        <time>2020-02-16T16:21:17Z</time>
      </trkpt>
      <trkpt lat="45.93638" lon="4.35766">
        <ele>550</ele>
        <time>2020-02-16T16:22:28Z</time>
      </trkpt>
      <trkpt lat="45.93647" lon="4.35687">
        <ele>552</ele>
        <time>2020-02-16T16:23:42Z</time>
      </trkpt>
      <trkpt lat="45.93735" lon="4.35533">
        <ele>557</ele>
        <time>2020-02-16T16:26:47Z</time>
      </trkpt>
      <trkpt lat="45.93872" lon="4.35442">
        <ele>548</ele>
        <time>2020-02-16T16:30:08Z</time>
      </trkpt>
      <trkpt lat="45.93936" lon="4.35291">
        <ele>527</ele>
        <time>2020-02-16T16:32:52Z</time>
      </trkpt>
      <trkpt lat="45.94" lon="4.35309">
        <ele>523</ele>
        <time>2020-02-16T16:34:20Z</time>
      </trkpt>
      <trkpt lat="45.94033" lon="4.35276">
        <ele>522</ele>
        <time>2020-02-16T16:35:13Z</time>
      </trkpt>
      <trkpt lat="45.94085" lon="4.35368">
        <ele>512</ele>
        <time>2020-02-16T16:37:03Z</time>
      </trkpt>
      <trkpt lat="45.94144" lon="4.3541">
        <ele>507</ele>
        <time>2020-02-16T16:38:31Z</time>
      </trkpt>
      <trkpt lat="45.94183" lon="4.35437">
        <ele>513</ele>
        <time>2020-02-16T16:39:29Z</time>
      </trkpt>
      <trkpt lat="45.94403" lon="4.35391">
        <ele>506</ele>
        <time>2020-02-16T16:44:25Z</time>
      </trkpt>
      <trkpt lat="45.94477" lon="4.35388">
        <ele>505</ele>
        <time>2020-02-16T16:46:04Z</time>
      </trkpt>
      <trkpt lat="45.94509" lon="4.35449">
        <ele>510</ele>
        <time>2020-02-16T16:47:15Z</time>
      </trkpt>
      <trkpt lat="45.94552" lon="4.35539">
        <ele>518</ele>
        <time>2020-02-16T16:48:56Z</time>
      </trkpt>
      <trkpt lat="45.94655" lon="4.35577">
        <ele>508</ele>
        <time>2020-02-16T16:51:18Z</time>
      </trkpt>
      <trkpt lat="45.94681" lon="4.35626">
        <ele>513</ele>
        <time>2020-02-16T16:52:16Z</time>
      </trkpt>
      <trkpt lat="45.94778" lon="4.35642">
        <ele>517</ele>
        <time>2020-02-16T16:54:26Z</time>
      </trkpt>
      <trkpt lat="45.94749" lon="4.35495">
        <ele>524</ele>
        <time>2020-02-16T16:56:48Z</time>
      </trkpt>
      <trkpt lat="45.94734" lon="4.35429">
        <ele>527</ele>
        <time>2020-02-16T16:57:52Z</time>
      </trkpt>
      <trkpt lat="45.94731" lon="4.35352">
        <ele>530</ele>
        <time>2020-02-16T16:59:04Z</time>
      </trkpt>
      <trkpt lat="45.94791" lon="4.35265">
        <ele>545</ele>
        <time>2020-02-16T17:00:57Z</time>
      </trkpt>
      <trkpt lat="45.94794" lon="4.35048">
        <ele>520</ele>
        <time>2020-02-16T17:04:19Z</time>
      </trkpt>
      <trkpt lat="45.94778" lon="4.34848">
        <ele>487</ele>
        <time>2020-02-16T17:07:26Z</time>
      </trkpt>
      <trkpt lat="45.94839" lon="4.34833">
        <ele>494</ele>
        <time>2020-02-16T17:08:48Z</time>
      </trkpt>
      <trkpt lat="45.94814" lon="4.34756">
        <ele>484</ele>
        <time>2020-02-16T17:10:07Z</time>
      </trkpt>
      <trkpt lat="45.94887" lon="4.34623">
        <ele>484</ele>
        <time>2020-02-16T17:12:44Z</time>
      </trkpt>
      <trkpt lat="45.94864" lon="4.34784">
        <ele>494</ele>
        <time>2020-02-16T17:15:17Z</time>
      </trkpt>
      <trkpt lat="45.94997" lon="4.34889">
        <ele>522</ele>
        <time>2020-02-16T17:18:39Z</time>
      </trkpt>
      <trkpt lat="45.94976" lon="4.3479">
        <ele>525</ele>
        <time>2020-02-16T17:20:15Z</time>
      </trkpt>
      <trkpt lat="45.95022" lon="4.34612">
        <ele>525</ele>
        <time>2020-02-16T17:23:11Z</time>
      </trkpt>
      <trkpt lat="45.95152" lon="4.34381">
        <ele>521</ele>
        <time>2020-02-16T17:27:47Z</time>
      </trkpt>
      <trkpt lat="45.95358" lon="4.34215">
        <ele>492</ele>
        <time>2020-02-16T17:33:02Z</time>
      </trkpt>
      <trkpt lat="45.95389" lon="4.34267">
        <ele>506</ele>
        <time>2020-02-16T17:34:06Z</time>
      </trkpt>
      <trkpt lat="45.95446" lon="4.34204">
        <ele>495</ele>
        <time>2020-02-16T17:35:42Z</time>
      </trkpt>
      <trkpt lat="45.9558" lon="4.34177">
        <ele>502</ele>
        <time>2020-02-16T17:38:42Z</time>
      </trkpt>
      <trkpt lat="45.95755" lon="4.34016">
        <ele>479</ele>
        <time>2020-02-16T17:43:19Z</time>
      </trkpt>
      <trkpt lat="45.95833" lon="4.33923">
        <ele>474</ele>
        <time>2020-02-16T17:45:35Z</time>
      </trkpt>
      <trkpt lat="45.95949" lon="4.33939">
        <ele>473</ele>
        <time>2020-02-16T17:48:10Z</time>
      </trkpt>
      <trkpt lat="45.96041" lon="4.34099">
        <ele>479</ele>
        <time>2020-02-16T17:51:23Z</time>
      </trkpt>
      <trkpt lat="45.96132" lon="4.33917">
        <ele>473</ele>
        <time>2020-02-16T17:54:51Z</time>
      </trkpt>
      <trkpt lat="45.9622" lon="4.3408">
        <ele>493</ele>
        <time>2020-02-16T17:58:02Z</time>
      </trkpt>
      <trkpt lat="45.96234" lon="4.34501">
        <ele>524</ele>
        <time>2020-02-16T18:04:33Z</time>
      </trkpt>
      <trkpt lat="45.96179" lon="4.34709">
        <ele>533</ele>
        <time>2020-02-16T18:08:00Z</time>
      </trkpt>
      <trkpt lat="45.96311" lon="4.35136">
        <ele>565</ele>
        <time>2020-02-16T18:15:13Z</time>
      </trkpt>
      <trkpt lat="45.96318" lon="4.35129">
        <ele>562.9</ele>
      </trkpt>
      <trkpt lat="45.96319" lon="4.35132">
        <ele>562.6</ele>
      </trkpt>
      <trkpt lat="45.96325" lon="4.3514">
        <ele>561.5</ele>
      </trkpt>
      <trkpt lat="45.96361" lon="4.35155">
        <ele>555.1</ele>
      </trkpt>
      <trkpt lat="45.96366" lon="4.35149">
        <ele>554.2</ele>
      </trkpt>
      <trkpt lat="45.96375" lon="4.35137">
        <ele>552.4</ele>
      </trkpt>
      <trkpt lat="45.96389" lon="4.35123">
        <ele>549.9</ele>
      </trkpt>
      <trkpt lat="45.96413" lon="4.35103">
        <ele>545.8</ele>
      </trkpt>
      <trkpt lat="45.96422" lon="4.35097">
        <ele>544.3</ele>
      </trkpt>
      <trkpt lat="45.96433" lon="4.35094">
        <ele>542.5</ele>
      </trkpt>
      <trkpt lat="45.96443" lon="4.35095">
        <ele>540.8</ele>
      </trkpt>
      <trkpt lat="45.96468" lon="4.35106">
        <ele>537.1</ele>
      </trkpt>
      <trkpt lat="45.96484" lon="4.35115">
        <ele>535</ele>
      </trkpt>
      <trkpt lat="45.96495" lon="4.35123">
        <ele>533.7</ele>
      </trkpt>
      <trkpt lat="45.965" lon="4.35127">
        <ele>533.2</ele>
      </trkpt>
      <trkpt lat="45.96512" lon="4.35135">
        <ele>532.4</ele>
      </trkpt>
      <trkpt lat="45.9653" lon="4.35145">
        <ele>530.9</ele>
      </trkpt>
      <trkpt lat="45.96542" lon="4.3515">
        <ele>529.9</ele>
      </trkpt>
      <trkpt lat="45.96555" lon="4.35153">
        <ele>528.7</ele>
      </trkpt>
      <trkpt lat="45.96572" lon="4.35157">
        <ele>527</ele>
      </trkpt>
      <trkpt lat="45.96595" lon="4.35146">
        <ele>525</ele>
      </trkpt>
      <trkpt lat="45.96616" lon="4.3513">
        <ele>524.2</ele>
      </trkpt>
      <trkpt lat="45.96634" lon="4.35112">
        <ele>524.1</ele>
      </trkpt>
      <trkpt lat="45.96645" lon="4.35094">
        <ele>524.4</ele>
      </trkpt>
      <trkpt lat="45.96652" lon="4.35085">
        <ele>524.8</ele>
      </trkpt>
      <trkpt lat="45.96667" lon="4.35063">
        <ele>524</ele>
      </trkpt>
      <trkpt lat="45.96675" lon="4.35053">
        <ele>522.7</ele>
      </trkpt>
      <trkpt lat="45.967" lon="4.35025">
        <ele>519.5</ele>
      </trkpt>
      <trkpt lat="45.96706" lon="4.35019">
        <ele>518.9</ele>
      </trkpt>
      <trkpt lat="45.96719" lon="4.35009">
        <ele>517.9</ele>
      </trkpt>
      <trkpt lat="45.96727" lon="4.35">
        <ele>517.4</ele>
      </trkpt>
      <trkpt lat="45.96732" lon="4.34993">
        <ele>516.7</ele>
      </trkpt>
      <trkpt lat="45.96736" lon="4.35003">
        <ele>516.8</ele>
      </trkpt>
      <trkpt lat="45.96742" lon="4.35036">
        <ele>515.9</ele>
      </trkpt>
      <trkpt lat="45.96745" lon="4.35065">
        <ele>515</ele>
      </trkpt>
      <trkpt lat="45.96746" lon="4.35079">
        <ele>514.6</ele>
      </trkpt>
      <trkpt lat="45.96757" lon="4.35119">
        <ele>512.2</ele>
      </trkpt>
      <trkpt lat="45.96766" lon="4.35168">
        <ele>510.4</ele>
      </trkpt>
      <trkpt lat="45.96767" lon="4.35193">
        <ele>509.2</ele>
      </trkpt>
      <trkpt lat="45.96767" lon="4.35213">
        <ele>508.5</ele>
      </trkpt>
      <trkpt lat="45.96756" lon="4.35277">
        <ele>507.1</ele>
      </trkpt>
      <trkpt lat="45.96748" lon="4.35314">
        <ele>506.6</ele>
      </trkpt>
      <trkpt lat="45.96747" lon="4.35326">
        <ele>506.3</ele>
      </trkpt>
      <trkpt lat="45.96757" lon="4.35349">
        <ele>508</ele>
      </trkpt>
      <trkpt lat="45.96768" lon="4.35367">
        <ele>509.6</ele>
      </trkpt>
      <trkpt lat="45.96777" lon="4.35379">
        <ele>510.4</ele>
      </trkpt>
      <trkpt lat="45.96793" lon="4.35396">
        <ele>510.8</ele>
      </trkpt>
      <trkpt lat="45.96806" lon="4.35413">
        <ele>511</ele>
      </trkpt>
      <trkpt lat="45.96822" lon="4.35431">
        <ele>512.9</ele>
      </trkpt>
      <trkpt lat="45.96826" lon="4.35437">
        <ele>514.1</ele>
      </trkpt>
      <trkpt lat="45.96837" lon="4.35454">
        <ele>516.5</ele>
      </trkpt>
      <trkpt lat="45.96851" lon="4.35473">
        <ele>516.8</ele>
      </trkpt>
      <trkpt lat="45.96858" lon="4.35487">
        <ele>517.2</ele>
      </trkpt>
      <trkpt lat="45.96871" lon="4.35541">
        <ele>521.3</ele>
      </trkpt>
      <trkpt lat="45.96874" lon="4.35562">
        <ele>523.3</ele>
      </trkpt>
      <trkpt lat="45.96874" lon="4.35579">
        <ele>525.9</ele>
      </trkpt>
      <trkpt lat="45.96871" lon="4.35596">
        <ele>527.9</ele>
      </trkpt>
      <trkpt lat="45.9687" lon="4.3561">
        <ele>528.6</ele>
      </trkpt>
      <trkpt lat="45.96871" lon="4.35616">
        <ele>528.3</ele>
      </trkpt>
      <trkpt lat="45.96872" lon="4.3562">
        <ele>528.1</ele>
      </trkpt>
      <trkpt lat="45.96882" lon="4.35619">
        <ele>524.4</ele>
      </trkpt>
      <trkpt lat="45.96893" lon="4.35615">
        <ele>519.9</ele>
      </trkpt>
      <trkpt lat="45.96925" lon="4.35616">
        <ele>510.1</ele>
      </trkpt>
      <trkpt lat="45.96942" lon="4.35623">
        <ele>508.2</ele>
      </trkpt>
      <trkpt lat="45.96962" lon="4.35647">
        <ele>507.4</ele>
      </trkpt>
      <trkpt lat="45.96977" lon="4.35668">
        <ele>507.3</ele>
      </trkpt>
      <trkpt lat="45.97" lon="4.35704">
        <ele>508.8</ele>
      </trkpt>
      <trkpt lat="45.97027" lon="4.35749">
        <ele>506.5</ele>
      </trkpt>
      <trkpt lat="45.97037" lon="4.35771">
        <ele>505.7</ele>
      </trkpt>
      <trkpt lat="45.97049" lon="4.35793">
        <ele>504.4</ele>
      </trkpt>
      <trkpt lat="45.9706" lon="4.35807">
        <ele>503</ele>
      </trkpt>
      <trkpt lat="45.97071" lon="4.35818">
        <ele>501.4</ele>
      </trkpt>
      <trkpt lat="45.97104" lon="4.35846">
        <ele>495</ele>
      </trkpt>
      <trkpt lat="45.97114" lon="4.35862">
        <ele>493</ele>
      </trkpt>
      <trkpt lat="45.97131" lon="4.35905">
        <ele>491.4</ele>
      </trkpt>
      <trkpt lat="45.97139" lon="4.35927">
        <ele>490.9</ele>
      </trkpt>
      <trkpt lat="45.97143" lon="4.35945">
        <ele>491.1</ele>
      </trkpt>
      <trkpt lat="45.97144" lon="4.35958">
        <ele>491.8</ele>
      </trkpt>
      <trkpt lat="45.97147" lon="4.35974">
        <ele>492.1</ele>
      </trkpt>
      <trkpt lat="45.97158" lon="4.35998">
        <ele>491</ele>
      </trkpt>
      <trkpt lat="45.9716" lon="4.36008">
        <ele>491.1</ele>
      </trkpt>
      <trkpt lat="45.97166" lon="4.36063">
        <ele>492.2</ele>
      </trkpt>
      <trkpt lat="45.97163" lon="4.36067">
        <ele>493.1</ele>
      </trkpt>
      <trkpt lat="45.97159" lon="4.36074">
        <ele>494.4</ele>
      </trkpt>
      <trkpt lat="45.97157" lon="4.3608">
        <ele>495.3</ele>
      </trkpt>
      <trkpt lat="45.97145" lon="4.36103">
        <ele>499.1</ele>
      </trkpt>
      <trkpt lat="45.97136" lon="4.36117">
        <ele>501.2</ele>
      </trkpt>
      <trkpt lat="45.97126" lon="4.36131">
        <ele>503.1</ele>
      </trkpt>
      <trkpt lat="45.9712" lon="4.36136">
        <ele>504</ele>
      </trkpt>
      <trkpt lat="45.97106" lon="4.36142">
        <ele>506.2</ele>
      </trkpt>
      <trkpt lat="45.97102" lon="4.36154">
        <ele>506.3</ele>
      </trkpt>
      <trkpt lat="45.97097" lon="4.3616">
        <ele>506.7</ele>
      </trkpt>
      <trkpt lat="45.97092" lon="4.36169">
        <ele>507.1</ele>
      </trkpt>
      <trkpt lat="45.9709" lon="4.36177">
        <ele>507.5</ele>
      </trkpt>
      <trkpt lat="45.9709" lon="4.36181">
        <ele>507.5</ele>
      </trkpt>
      <trkpt lat="45.97091" lon="4.36184">
        <ele>507.5</ele>
      </trkpt>
      <trkpt lat="45.97097" lon="4.36189">
        <ele>507.1</ele>
      </trkpt>
      <trkpt lat="45.97109" lon="4.36191">
        <ele>506.1</ele>
      </trkpt>
      <trkpt lat="45.97117" lon="4.36192">
        <ele>505.5</ele>
      </trkpt>
      <trkpt lat="45.97156" lon="4.36202">
        <ele>503.4</ele>
      </trkpt>
      <trkpt lat="45.97172" lon="4.3621">
        <ele>503.4</ele>
      </trkpt>
      <trkpt lat="45.97174" lon="4.36213">
        <ele>503.8</ele>
      </trkpt>
      <trkpt lat="45.97174" lon="4.36217">
        <ele>504.4</ele>
      </trkpt>
      <trkpt lat="45.97174" lon="4.3622">
        <ele>504.8</ele>
      </trkpt>
      <trkpt lat="45.97171" lon="4.36222">
        <ele>505.2</ele>
      </trkpt>
      <trkpt lat="45.97157" lon="4.36228">
        <ele>506.4</ele>
      </trkpt>
      <trkpt lat="45.97149" lon="4.36236">
        <ele>507.5</ele>
      </trkpt>
      <trkpt lat="45.97148" lon="4.36241">
        <ele>508.1</ele>
      </trkpt>
      <trkpt lat="45.97144" lon="4.36252">
        <ele>509.3</ele>
      </trkpt>
      <trkpt lat="45.97141" lon="4.36273">
        <ele>511.9</ele>
      </trkpt>
      <trkpt lat="45.97137" lon="4.36344">
        <ele>520.1</ele>
      </trkpt>
      <trkpt lat="45.97133" lon="4.36375">
        <ele>522.5</ele>
      </trkpt>
      <trkpt lat="45.97128" lon="4.36443">
        <ele>527.3</ele>
      </trkpt>
      <trkpt lat="45.97129" lon="4.36458">
        <ele>528.4</ele>
      </trkpt>
      <trkpt lat="45.97126" lon="4.36498">
        <ele>530.9</ele>
      </trkpt>
      <trkpt lat="45.97119" lon="4.36578">
        <ele>538.3</ele>
      </trkpt>
      <trkpt lat="45.97113" lon="4.36594">
        <ele>540.6</ele>
      </trkpt>
      <trkpt lat="45.97108" lon="4.36604">
        <ele>542.3</ele>
      </trkpt>
      <trkpt lat="45.97105" lon="4.36609">
        <ele>543.2</ele>
      </trkpt>
      <trkpt lat="45.971" lon="4.36618">
        <ele>544.7</ele>
      </trkpt>
      <trkpt lat="45.97096" lon="4.36624">
        <ele>545.9</ele>
      </trkpt>
      <trkpt lat="45.97088" lon="4.36638">
        <ele>548.5</ele>
      </trkpt>
      <trkpt lat="45.9708" lon="4.3665">
        <ele>550.7</ele>
      </trkpt>
      <trkpt lat="45.97057" lon="4.36685">
        <ele>555.5</ele>
      </trkpt>
      <trkpt lat="45.97045" lon="4.36704">
        <ele>558.1</ele>
      </trkpt>
      <trkpt lat="45.9704" lon="4.36715">
        <ele>559.6</ele>
      </trkpt>
      <trkpt lat="45.97028" lon="4.36745">
        <ele>563.7</ele>
      </trkpt>
      <trkpt lat="45.97018" lon="4.36767">
        <ele>565.8</ele>
      </trkpt>
      <trkpt lat="45.97005" lon="4.36791">
        <ele>568.2</ele>
      </trkpt>
      <trkpt lat="45.96997" lon="4.36805">
        <ele>569.7</ele>
      </trkpt>
      <trkpt lat="45.96905" lon="4.36933">
        <ele>582.3</ele>
      </trkpt>
      <trkpt lat="45.969" lon="4.36941">
        <ele>583</ele>
      </trkpt>
      <trkpt lat="45.96892" lon="4.36953">
        <ele>584</ele>
      </trkpt>
      <trkpt lat="45.96887" lon="4.36963">
        <ele>584.9</ele>
      </trkpt>
      <trkpt lat="45.96875" lon="4.36987">
        <ele>587</ele>
      </trkpt>
      <trkpt lat="45.9687" lon="4.37">
        <ele>588.2</ele>
      </trkpt>
      <trkpt lat="45.9686" lon="4.37026">
        <ele>591.6</ele>
      </trkpt>
      <trkpt lat="45.96852" lon="4.37039">
        <ele>593.4</ele>
      </trkpt>
      <trkpt lat="45.9683" lon="4.37052">
        <ele>595.5</ele>
      </trkpt>
      <trkpt lat="45.9682" lon="4.37056">
        <ele>595.6</ele>
      </trkpt>
      <trkpt lat="45.96807" lon="4.37062">
        <ele>595.8</ele>
      </trkpt>
      <trkpt lat="45.96795" lon="4.37069">
        <ele>596.2</ele>
      </trkpt>
      <trkpt lat="45.96788" lon="4.37076">
        <ele>596.6</ele>
      </trkpt>
      <trkpt lat="45.96781" lon="4.37083">
        <ele>597</ele>
      </trkpt>
      <trkpt lat="45.96791" lon="4.37098">
        <ele>598.5</ele>
      </trkpt>
      <trkpt lat="45.96799" lon="4.37106">
        <ele>599.5</ele>
      </trkpt>
      <trkpt lat="45.96805" lon="4.37114">
        <ele>600.3</ele>
      </trkpt>
      <trkpt lat="45.96807" lon="4.37123">
        <ele>601</ele>
      </trkpt>
      <trkpt lat="45.96805" lon="4.37132">
        <ele>601.7</ele>
      </trkpt>
      <trkpt lat="45.96799" lon="4.37155">
        <ele>603.1</ele>
      </trkpt>
      <trkpt lat="45.96795" lon="4.37167">
        <ele>603.7</ele>
      </trkpt>
      <trkpt lat="45.96789" lon="4.3718">
        <ele>604.9</ele>
      </trkpt>
      <trkpt lat="45.96778" lon="4.37199">
        <ele>606.4</ele>
      </trkpt>
      <trkpt lat="45.96766" lon="4.37214">
        <ele>607.5</ele>
      </trkpt>
      <trkpt lat="45.96749" lon="4.37228">
        <ele>608.3</ele>
      </trkpt>
      <trkpt lat="45.96735" lon="4.37242">
        <ele>608.9</ele>
      </trkpt>
      <trkpt lat="45.9672" lon="4.37254">
        <ele>609.3</ele>
      </trkpt>
      <trkpt lat="45.96714" lon="4.37268">
        <ele>610.4</ele>
      </trkpt>
      <trkpt lat="45.96713" lon="4.37284">
        <ele>612.2</ele>
      </trkpt>
      <trkpt lat="45.96715" lon="4.37329">
        <ele>617.5</ele>
      </trkpt>
      <trkpt lat="45.96715" lon="4.3735">
        <ele>619.5</ele>
      </trkpt>
      <trkpt lat="45.96712" lon="4.37371">
        <ele>621.2</ele>
      </trkpt>
      <trkpt lat="45.96703" lon="4.37413">
        <ele>624.1</ele>
      </trkpt>
      <trkpt lat="45.96701" lon="4.37432">
        <ele>625.9</ele>
      </trkpt>
      <trkpt lat="45.96701" lon="4.37463">
        <ele>629.3</ele>
      </trkpt>
      <trkpt lat="45.96704" lon="4.37494">
        <ele>633</ele>
      </trkpt>
      <trkpt lat="45.96705" lon="4.3752">
        <ele>636.8</ele>
      </trkpt>
      <trkpt lat="45.96704" lon="4.37528">
        <ele>638.1</ele>
      </trkpt>
      <trkpt lat="45.96697" lon="4.37547">
        <ele>640.8</ele>
      </trkpt>
      <trkpt lat="45.96663" lon="4.37576">
        <ele>643.9</ele>
      </trkpt>
      <trkpt lat="45.96654" lon="4.37586">
        <ele>644.1</ele>
      </trkpt>
      <trkpt lat="45.96647" lon="4.37598">
        <ele>644.1</ele>
      </trkpt>
      <trkpt lat="45.96643" lon="4.37609">
        <ele>644.6</ele>
      </trkpt>
      <trkpt lat="45.96645" lon="4.37621">
        <ele>646</ele>
      </trkpt>
      <trkpt lat="45.96652" lon="4.37629">
        <ele>648.1</ele>
      </trkpt>
      <trkpt lat="45.96659" lon="4.37633">
        <ele>649.9</ele>
      </trkpt>
      <trkpt lat="45.96667" lon="4.37641">
        <ele>652.2</ele>
      </trkpt>
      <trkpt lat="45.96673" lon="4.3765">
        <ele>653.1</ele>
      </trkpt>
      <trkpt lat="45.96676" lon="4.37656">
        <ele>653.6</ele>
      </trkpt>
      <trkpt lat="45.96678" lon="4.37666">
        <ele>654.6</ele>
      </trkpt>
      <trkpt lat="45.96676" lon="4.37707">
        <ele>657.4</ele>
      </trkpt>
      <trkpt lat="45.96674" lon="4.37716">
        <ele>658</ele>
      </trkpt>
      <trkpt lat="45.96671" lon="4.37726">
        <ele>658.6</ele>
      </trkpt>
      <trkpt lat="45.96653" lon="4.37759">
        <ele>658.3</ele>
      </trkpt>
      <trkpt lat="45.96639" lon="4.37788">
        <ele>658.8</ele>
      </trkpt>
      <trkpt lat="45.96627" lon="4.37816">
        <ele>659.5</ele>
      </trkpt>
      <trkpt lat="45.96616" lon="4.37848">
        <ele>661.5</ele>
      </trkpt>
      <trkpt lat="45.96601" lon="4.37886">
        <ele>664.6</ele>
      </trkpt>
      <trkpt lat="45.96593" lon="4.37914">
        <ele>667.2</ele>
      </trkpt>
      <trkpt lat="45.96588" lon="4.37928">
        <ele>668.4</ele>
      </trkpt>
      <trkpt lat="45.96583" lon="4.37956">
        <ele>671</ele>
      </trkpt>
      <trkpt lat="45.96573" lon="4.37981">
        <ele>672.8</ele>
      </trkpt>
      <trkpt lat="45.96568" lon="4.38003">
        <ele>675</ele>
      </trkpt>
      <trkpt lat="45.96567" lon="4.38015">
        <ele>676.8</ele>
      </trkpt>
      <trkpt lat="45.96564" lon="4.38047">
        <ele>681.7</ele>
      </trkpt>
      <trkpt lat="45.96557" lon="4.38076">
        <ele>685.5</ele>
      </trkpt>
      <trkpt lat="45.96548" lon="4.38102">
        <ele>689</ele>
      </trkpt>
      <trkpt lat="45.96537" lon="4.38139">
        <ele>694.4</ele>
      </trkpt>
      <trkpt lat="45.96521" lon="4.38187">
        <ele>702.1</ele>
      </trkpt>
      <trkpt lat="45.9651" lon="4.38217">
        <ele>706.7</ele>
      </trkpt>
      <trkpt lat="45.9649" lon="4.3827">
        <ele>716</ele>
      </trkpt>
      <trkpt lat="45.96485" lon="4.38277">
        <ele>717.4</ele>
      </trkpt>
      <trkpt lat="45.96467" lon="4.38301">
        <ele>722.7</ele>
      </trkpt>
      <trkpt lat="45.96437" lon="4.38329">
        <ele>729.9</ele>
      </trkpt>
      <trkpt lat="45.96416" lon="4.3836">
        <ele>737.1</ele>
      </trkpt>
      <trkpt lat="45.96391" lon="4.38387">
        <ele>744</ele>
      </trkpt>
      <trkpt lat="45.96363" lon="4.38422">
        <ele>751.1</ele>
      </trkpt>
      <trkpt lat="45.96335" lon="4.38443">
        <ele>754.2</ele>
      </trkpt>
      <trkpt lat="45.96313" lon="4.38456">
        <ele>758.4</ele>
      </trkpt>
      <trkpt lat="45.96302" lon="4.3846">
        <ele>760.6</ele>
      </trkpt>
      <trkpt lat="45.96295" lon="4.38464">
        <ele>762.1</ele>
      </trkpt>
      <trkpt lat="45.96286" lon="4.38468">
        <ele>763.8</ele>
      </trkpt>
      <trkpt lat="45.96199" lon="4.38501">
        <ele>781</ele>
      </trkpt>
      <trkpt lat="45.96277" lon="4.38654">
        <ele>776</ele>
      </trkpt>
      <trkpt lat="45.96378" lon="4.38741">
        <ele>773</ele>
        <time>2020-02-16T20:12:10Z</time>
      </trkpt>
      <trkpt lat="45.9605" lon="4.38627">
        <ele>772</ele>
        <time>2020-02-16T20:19:40Z</time>
      </trkpt>
      <trkpt lat="45.95916" lon="4.38642">
        <ele>768</ele>
        <time>2020-02-16T20:22:40Z</time>
      </trkpt>
      <trkpt lat="45.95774" lon="4.38775">
        <ele>766</ele>
        <time>2020-02-16T20:26:26Z</time>
      </trkpt>
      <trkpt lat="45.95542" lon="4.3894">
        <ele>785</ele>
        <time>2020-02-16T20:32:11Z</time>
      </trkpt>
      <trkpt lat="45.95422" lon="4.3894">
        <ele>795</ele>
        <time>2020-02-16T20:34:51Z</time>
      </trkpt>
      <trkpt lat="45.95301" lon="4.38998">
        <ele>797</ele>
        <time>2020-02-16T20:37:42Z</time>
      </trkpt>
      <trkpt lat="45.94755" lon="4.38998">
        <ele>821</ele>
        <time>2020-02-16T20:49:50Z</time>
      </trkpt>
      <trkpt lat="45.94684" lon="4.38833">
        <ele>843</ele>
        <time>2020-02-16T20:52:50Z</time>
      </trkpt>
      <trkpt lat="45.94618" lon="4.38805">
        <ele>849</ele>
        <time>2020-02-16T20:54:22Z</time>
      </trkpt>
      <trkpt lat="45.94585" lon="4.38833">
        <ele>856</ele>
        <time>2020-02-16T20:55:13Z</time>
      </trkpt>
      <trkpt lat="45.94432" lon="4.39011">
        <ele>864</ele>
        <time>2020-02-16T20:59:36Z</time>
      </trkpt>
      <trkpt lat="45.94369" lon="4.39035">
        <ele>862</ele>
        <time>2020-02-16T21:01:03Z</time>
      </trkpt>
      <trkpt lat="45.9425" lon="4.38998">
        <ele>861</ele>
        <time>2020-02-16T21:03:45Z</time>
      </trkpt>
      <trkpt lat="45.94141" lon="4.38951">
        <ele>860</ele>
        <time>2020-02-16T21:06:17Z</time>
      </trkpt>
      <trkpt lat="45.94048" lon="4.38957">
        <ele>860</ele>
        <time>2020-02-16T21:08:21Z</time>
      </trkpt>
      <trkpt lat="45.93853" lon="4.38837">
        <ele>847</ele>
        <time>2020-02-16T21:13:04Z</time>
      </trkpt>
      <trkpt lat="45.93718" lon="4.38728">
        <ele>853.1</ele>
      </trkpt>
      <trkpt lat="45.93592" lon="4.38801">
        <ele>846</ele>
      </trkpt>
      <trkpt lat="45.93429" lon="4.38867">
        <ele>816</ele>
      </trkpt>
      <trkpt lat="45.93203" lon="4.38873">
        <ele>772</ele>
      </trkpt>
      <trkpt lat="45.93176" lon="4.38785">
        <ele>766</ele>
      </trkpt>
      <trkpt lat="45.931" lon="4.38837">
        <ele>755</ele>
      </trkpt>
      <trkpt lat="45.93081" lon="4.38901">
        <ele>747</ele>
      </trkpt>
      <trkpt lat="45.92937" lon="4.39001">
        <ele>728</ele>
      </trkpt>
      <trkpt lat="45.92863" lon="4.38834">
        <ele>716</ele>
      </trkpt>
      <trkpt lat="45.92904" lon="4.38782">
        <ele>713</ele>
      </trkpt>
      <trkpt lat="45.92923" lon="4.38719">
        <ele>720</ele>
      </trkpt>
      <trkpt lat="45.92855" lon="4.38682">
        <ele>716</ele>
      </trkpt>
      <trkpt lat="45.92836" lon="4.38585">
        <ele>720</ele>
      </trkpt>
      <trkpt lat="45.92861" lon="4.38459">
        <ele>724</ele>
      </trkpt>
      <trkpt lat="45.92854" lon="4.3842">
        <ele>721.6</ele>
      </trkpt>
    </trkseg>
  </trk>
</gpx>